Lapse_Rate
2.3 2.6 3.2 2.3 2.5 2.0 0.5 0.5 -0.1 3.1 2.6 2.5 2.2 2.9 3.6 3.6 4.4 5.1 5.7 6.3 7.9 7.8 7.9 7.9 7.6 6.9 6.6 5.3 3.4 3.2 2.9 3.0 3.3 3.4 3.4 3.4 3.3 3.2 3.4 3.5 3.6 3.7 4.0
1.9 4.1 3.3 2.6 2.3 2.9 2.8 1.0 0.5 2.6 2.9 2.2 1.7 2.8 3.6 3.8 4.2 4.6 5.2 6.1 7.6 7.8 7.8 7.7 6.9 6.5 5.4 3.9 3.9 3.3 3.0 3.1 3.6 3.6 3.7 3.3 3.3 3.1 3.2 3.3 3.3 3.6 3.8
2.0 4.2 4.1 3.7 2.8 3.0 3.1 2.8 1.1 3.5 3.7 2.9 1.8 2.4 3.0 3.6 4.0 4.4 4.7 5.4 6.1 7.4 7.9 7.6 6.7 6.2 5.5 4.6 3.9 3.5 3.3 3.5 3.5 3.6 3.4 3.3 3.1 3.1 3.0 3.2 3.3 3.5 3.7
1.5 1.6 3.5 3.8 3.7 2.1 3.4 3.3 2.3 1.8 4.1 4.1 1.6 1.7 2.1 3.1 3.8 4.4 4.9 5.2 5.6 6.2 7.5 8.0 6.4 6.8 6.6 6.3 4.8 4.0 3.5 3.4 3.5 3.3 3.3 3.3 3.1 3.1 3.1 3.3 3.4 3.6 3.7
0.9 1.3 3.4 3.8 3.8 2.0 3.2 3.2 3.3 3.3 2.2 4.9 3.7 2.3 1.7 2.0 3.2 4.2 4.5 5.0 5.3 5.7 7.4 7.7 7.6 6.4 6.6 7.3 6.5 4.9 3.6 3.3 3.3 3.1 3.2 3.1 3.2 3.1 3.2 3.4 3.5 3.6 3.9
0.6 1.0 2.5 3.5 3.3 3.9 2.9 3.4 3.2 3.6 3.3 4.7 5.8 3.3 2.3 2.0 2.7 3.1 3.7 5.0 5.3 5.7 6.7 7.0 7.3 6.6 5.5 6.5 7.2 6.8 4.1 3.5 3.1 3.0 3.1 3.0 3.2 3.1 3.3 3.4 3.6 3.8 4.1
0.0 0.3 2.3 2.9 3.4 3.8 2.7 2.9 3.3 3.5 3.4 4.1 3.8 3.6 2.1 3.0 2.7 2.9 3.9 4.1 4.5 5.5 5.1 6.4 6.5 6.7 5.0 4.7 6.6 6.5 4.8 3.8 3.2 3.0 3.0 3.0 3.1 3.1 3.4 3.5 3.7 3.9 4.1
0.0 1.3 1.8 3.5 3.5 4.4 4.5 3.1 3.4 4.4 3.7 3.8 4.9 5.3 4.7 4.8 4.5 3.7 4.3 4.1 2.9 4.8 4.6 4.1 5.5 5.9 3.9 3.4 3.5 4.1 3.9 3.9 3.8 3.4 3.0 3.2 3.1 3.2 3.5 3.6 3.8 4.1 4.2
0.3 1.0 2.1 2.5 3.1 4.4 4.0 2.8 2.9 3.4 4.2 3.4 4.0 4.9 5.0 5.6 3.7 2.5 4.1 5.4 3.8 1.8 3.5 4.7 4.1 4.0 3.2 2.4 2.7 3.0 3.3 3.5 4.0 3.9 3.5 3.5 3.3 3.4 3.7 3.9 4.2 4.5 4.3
0.3 0.9 1.5 1.9 2.4 3.4 3.8 3.5 3.2 2.4 2.4 3.9 3.6 4.9 4.2 5.4 5.0 3.8 2.1 3.0 4.0 3.5 2.1 2.6 3.7 3.9 2.6 2.2 2.2 2.6 2.8 3.2 3.5 4.2 4.1 4.0 3.7 3.7 4.1 4.4 4.7 4.7 4.4
0.6 0.6 0.7 1.5 2.3 2.1 1.8 3.0 2.9 2.3 2.4 1.9 3.6 4.2 4.6 4.0 4.6 4.1 3.1 2.9 2.3 2.6 1.5 2.0 2.3 2.0 2.4 2.3 2.0 2.0 2.4 2.6 3.4 4.1 4.4 4.4 4.2 4.2 4.7 4.9 4.9 4.8 4.2
0.5 0.6 0.5 0.8 1.3 2.3 2.0 1.7 2.0 3.0 2.5 1.7 2.4 3.5 5.0 5.3 4.8 4.7 3.7 4.1 3.4 0.5 0.4 0.1 -0.2 0.9 1.3 1.5 1.7 2.0 2.3 2.3 3.0 3.7 4.3 4.8 4.6 4.6 4.8 4.9 4.8 4.2 3.8
-0.1 0.1 0.4 0.2 0.3 0.8 1.9 1.7 1.4 2.2 2.7 3.1 1.8 2.3 3.2 4.8 5.1 4.4 4.5 4.1 2.5 1.3 -0.5 -1.0 -0.8 0.1 0.2 0.2 0.8 1.9 1.8 2.1 2.3 3.3 4.0 4.8 4.6 4.4 4.5 4.6 4.2 3.4 3.3
0.4 0.8 0.4 0.3 0.5 0.7 1.4 2.2 1.6 1.9 2.5 3.1 2.8 2.2 3.2 2.7 5.1 5.2 4.5 4.1 3.5 2.8 1.2 0.4 -0.8 -1.7 -0.4 -0.7 -0.1 1.5 1.2 1.8 2.1 2.8 3.8 4.4 4.3 3.9 3.6 3.3 2.9 2.5 2.2
2.0 1.4 0.4 0.3 0.8 1.1 1.0 2.0 2.5 1.7 2.1 1.9 2.9 3.4 2.7 2.0 2.4 4.8 4.9 4.5 4.5 3.7 2.9 0.5 -0.3 -2.4 -1.4 -0.7 -0.2 0.7 0.1 0.9 1.8 2.4 3.1 3.6 3.7 2.9 2.9 2.7 2.0 1.7 1.3
0.9 0.9 0.9 0.8 0.7 1.1 1.4 1.4 2.1 2.9 1.6 2.1 2.6 3.1 3.0 3.3 2.3 1.9 5.1 4.9 4.2 4.5 4.6 2.8 -0.5 -1.9 -1.0 -1.1 -0.6 0.8 0.4 1.2 1.8 2.1 2.5 2.8 2.8 2.3 2.3 2.2 1.6 1.2 0.8
0.7 0.7 1.0 1.1 1.0 1.1 1.7 1.7 2.3 2.8 3.2 1.8 2.4 3.4 3.2 3.1 3.4 2.1 1.4 5.1 4.6 4.2 4.6 4.7 0.5 -1.2 -1.7 -1.5 -1.8 -0.8 0.6 0.6 0.9 1.8 2.1 2.3 2.5 2.1 2.1 1.9 1.3 0.7 0.4
0.3 0.9 0.8 1.0 1.4 1.6 1.7 1.8 2.3 2.9 3.4 3.2 2.3 2.4 3.2 4.2 3.2 3.3 2.3 3.8 4.5 3.5 4.4 4.6 2.0 -0.1 -0.7 -1.3 -2.6 -2.0 -1.2 0.2 0.6 1.4 1.9 1.8 2.1 1.9 1.9 1.6 0.8 0.2 -0.1
-0.1 0.1 0.8 1.0 1.1 1.7 1.9 2.1 2.3 3.0 3.8 4.6 4.7 3.4 3.9 3.7 3.8 2.4 3.1 2.8 5.4 3.5 2.6 1.5 1.8 0.1 -0.7 -1.4 -2.8 -3.3 -3.3 -1.7 0.6 1.5 1.4 1.5 1.8 1.6 1.8 1.1 0.3 -0.4 -0.7
0.1 0.2 0.8 1.3 2.0 1.8 2.1 2.5 3.1 3.2 3.6 4.7 5.0 5.4 4.7 4.5 4.7 4.1 3.5 2.9 3.5 4.5 2.6 1.7 0.7 1.0 0.6 -1.1 -1.5 -2.3 -3.2 -3.4 -1.0 0.5 0.7 1.0 1.2 1.4 1.6 0.5 -0.2 -0.9 -0.9
0.9 0.8 1.3 1.3 1.7 2.2 3.4 3.5 3.9 4.1 4.6 5.1 5.8 5.9 6.1 5.6 5.0 5.2 3.7 3.9 4.1 4.6 5.0 2.8 1.6 0.1 0.2 0.1 0.3 -2.3 -2.3 -2.9 -1.8 -2.1 -1.7 -1.6 -1.0 0.0 0.5 -0.1 -1.1 -1.5 -1.4
0.5 0.8 1.0 1.2 1.4 2.7 3.9 4.7 5.4 5.6 5.6 6.3 5.8 4.7 4.7 4.8 5.1 5.7 6.4 5.2 4.8 4.2 5.1 5.1 3.0 2.2 1.9 1.5 1.7 -0.6 -2.9 -3.1 -0.6 -2.9 -2.8 -2.3 -2.3 -2.9 -2.1 -1.2 -1.3 -1.7 -1.7
-0.1 0.3 0.7 0.9 1.2 1.6 3.7 5.0 5.6 5.7 6.0 6.1 6.4 5.8 4.6 5.4 5.7 5.0 5.3 5.5 5.1 4.1 5.1 6.1 4.7 2.8 2.8 0.9 1.1 1.4 -0.2 -2.5 -4.1 -4.0 -4.3 -5.1 -4.1 -2.6 -2.6 -1.9 -1.1 -1.6 -1.7
-0.2 0.1 0.5 1.1 1.4 2.1 3.9 5.0 5.7 6.1 5.2 5.3 6.7 7.1 6.9 5.2 5.6 7.0 6.2 5.9 5.0 4.6 4.8 5.4 5.9 5.0 3.7 3.3 1.7 1.5 1.5 -1.8 -2.6 -1.9 -3.8 -3.8 -5.6 -4.3 -3.3 -1.8 -1.0 -1.3 -1.6
-0.2 0.5 1.4 1.7 2.1 2.2 3.5 5.0 5.9 5.4 6.2 6.1 6.6 6.9 8.9 8.9 8.7 8.8 7.7 7.2 6.2 4.9 4.6 5.7 5.6 5.5 3.8 1.8 1.6 1.7 0.8 1.3 -1.1 -2.8 -4.4 -5.6 -4.8 -4.0 -2.9 -3.6 -1.6 -1.2 -1.4
1.2 2.4 2.6 2.8 3.1 3.4 4.0 4.9 6.1 6.8 7.0 7.0 6.8 7.3 8.3 9.2 9.2 9.0 8.3 7.9 6.8 5.8 4.4 5.2 6.5 5.0 3.8 1.9 1.3 1.8 1.5 2.0 -2.0 -2.9 -3.3 -4.5 -3.3 -3.2 -2.7 -3.9 -3.6 -1.8 -1.5
Wind_Speed
14 17 16 14 14 16 14 12 13 7 13 14 12 11 8 15 15 16 15 17 15 13 11 9 9 9 10 9 9 9 8 8 7 8 8 7 8 8 8 8 9 9 10
15 16 16 16 12 14 14 14 10 5 6 11 8 11 9 15 16 17 18 16 16 15 12 12 11 10 10 9 8 8 8 7 6 6 6 6 6 6 7 7 7 8 9
17 18 14 14 13 13 17 15 16 7 4 7 6 9 11 15 14 15 18 17 16 14 13 13 12 10 10 10 9 8 8 6 6 5 5 5 5 5 6 6 7 8 9
20 17 16 15 20 16 14 10 7 7 4 6 4 4 6 12 13 14 16 17 16 15 13 13 13 11 11 10 10 9 8 7 6 5 4 4 3 4 4 5 6 7 9
20 18 15 17 19 14 11 8 7 5 7 6 5 6 6 5 11 12 12 15 17 15 14 13 13 12 10 11 10 10 9 8 7 5 4 3 2 2 3 4 5 6 8
19 18 17 16 16 10 9 9 9 8 6 6 5 4 6 5 9 9 10 13 16 18 16 14 14 12 12 11 11 11 10 10 8 7 6 4 3 1 1 2 4 6 8
18 17 16 17 15 9 9 10 8 8 5 3 3 3 4 1 5 5 11 11 11 16 18 16 17 17 15 13 13 12 12 11 10 9 7 6 4 2 0 2 4 6 9
18 17 16 14 16 8 9 9 9 6 3 4 2 1 3 1 2 5 5 6 7 14 14 18 18 19 17 17 16 13 13 13 12 11 9 8 6 4 2 3 5 7 10
16 15 15 15 15 12 7 8 10 13 4 2 3 2 1 3 3 2 6 8 7 4 11 16 18 19 22 18 18 17 16 14 14 13 11 10 8 5 4 4 6 7 9
15 14 14 15 13 13 8 9 12 9 10 6 5 1 2 1 2 2 2 4 6 8 8 10 14 18 21 22 21 20 19 18 15 15 13 11 9 7 5 6 7 8 9
12 14 15 13 13 13 13 12 10 10 7 6 7 3 1 1 2 1 3 5 2 6 8 10 14 16 20 23 23 24 24 21 19 17 15 14 11 8 7 7 7 7 8
8 11 14 13 13 11 10 11 12 10 9 8 8 8 5 3 2 1 2 5 10 4 7 7 10 15 18 20 24 25 28 25 21 20 18 16 13 10 8 7 6 5 8
5 8 13 13 11 14 13 12 10 10 9 8 10 8 8 7 5 2 2 1 3 2 2 4 10 15 18 20 21 27 28 28 24 22 21 17 14 10 9 7 3 5 7
5 11 13 14 14 14 13 13 7 7 9 9 10 9 8 7 10 6 4 3 2 3 1 5 6 13 18 19 22 29 25 31 27 23 22 19 14 9 6 4 0 3 4
10 12 13 13 13 13 14 13 6 7 8 8 10 9 8 7 8 9 5 5 4 2 5 4 4 9 16 17 21 24 22 28 29 25 22 19 14 9 8 6 2 1 3
8 9 10 12 13 14 13 13 7 8 7 7 8 11 10 8 9 7 8 7 7 6 4 6 5 2 11 13 18 23 22 27 30 28 25 22 16 12 10 8 4 3 2
9 8 9 10 10 10 12 9 9 10 9 9 9 10 12 12 10 7 9 8 8 7 9 7 3 4 5 6 8 17 19 20 20 29 26 23 21 15 12 9 6 5 5
8 9 10 9 8 9 11 9 10 10 11 12 10 11 12 9 12 10 7 15 9 8 7 13 4 4 5 5 5 7 10 15 17 22 24 22 20 18 15 11 9 8 8
6 9 9 7 8 8 9 9 10 10 10 11 11 11 12 12 13 9 12 10 11 5 6 3 4 0 1 2 3 2 3 5 15 19 21 21 19 19 17 14 12 11 10
5 6 8 8 8 10 9 8 9 11 11 11 12 12 11 11 12 11 11 12 13 7 8 5 3 3 2 1 3 3 3 2 3 9 14 16 17 17 17 15 15 14 12
6 8 8 8 10 8 7 8 9 11 12 14 12 12 11 12 18 18 9 13 12 10 7 9 5 2 3 2 7 4 4 3 1 3 3 4 8 10 13 16 17 17 14
4 5 7 7 9 8 16 17 14 10 11 12 14 13 12 18 15 20 21 22 19 13 15 9 9 9 13 7 3 5 3 3 3 9 3 3 6 3 10 14 16 18 16
5 6 8 8 9 9 19 19 19 10 10 11 14 15 12 10 16 12 19 20 21 21 21 15 13 14 13 12 8 6 7 4 3 3 4 3 3 3 7 14 17 18 16
5 6 8 9 9 9 19 20 20 11 10 11 12 14 15 15 13 15 15 14 13 13 13 12 15 15 14 10 14 12 6 4 3 1 4 3 3 2 4 10 16 17 15
6 6 8 9 9 10 20 20 17 11 11 11 11 11 13 15 21 23 15 15 14 14 14 21 29 24 14 17 16 9 9 9 3 4 4 3 3 3 2 2 12 14 13
8 8 10 8 12 12 18 20 15 9 11 9 10 10 18 19 24 23 16 15 13 12 11 12 13 17 14 19 28 16 11 10 4 2 5 4 5 5 3 1 3 12 11
Wind_Direction
350 353 328 359 347 341 349 342 359 218 165 180 194 174 174 169 172 170 160 154 160 153 161 159 157 160 151 142 140 131 130 122 125 112 107 98 88 82 76 66 57 49 41
353 346 349 337 339 339 336 342 356 261 194 173 181 177 178 173 173 172 161 162 158 162 165 169 167 167 162 155 157 149 142 145 136 123 114 105 95 88 79 68 55 43 34
6 350 348 334 335 334 344 349 10 318 224 186 174 167 170 172 176 173 164 163 159 167 176 177 174 176 170 173 165 165 159 157 150 142 131 117 103 90 79 64 48 37 25
6 1 343 341 352 360 339 347 358 355 288 212 169 158 165 165 173 173 172 167 166 172 186 186 180 185 190 184 180 176 174 174 175 158 146 130 113 91 76 57 41 28 19
5 357 345 341 342 344 318 349 352 345 325 229 198 158 162 165 169 168 176 171 171 181 198 198 186 191 207 195 191 188 186 190 189 179 172 160 156 105 75 47 28 18 11
357 359 344 343 339 329 348 345 337 342 309 219 190 148 162 167 162 170 177 178 182 184 202 204 196 197 197 216 205 200 199 198 198 197 196 192 204 142 68 31 13 6 6
3 359 347 334 343 345 345 333 338 322 347 358 108 70 36 55 164 175 180 183 191 192 196 208 208 210 207 217 220 206 211 206 208 205 206 212 221 225 322 358 357 357 4
5 3 354 344 355 346 338 344 338 316 295 16 328 154 147 75 250 208 190 194 195 196 194 204 211 213 212 213 219 221 217 216 216 214 213 218 226 240 277 323 338 350 360
3 2 354 358 349 345 346 352 340 335 310 338 357 271 281 197 139 261 224 198 202 192 201 205 210 211 212 214 215 223 223 225 223 220 219 223 228 238 264 296 318 340 355
356 356 358 357 353 342 351 351 342 338 339 328 339 325 172 257 250 225 247 233 205 204 200 210 210 211 209 212 218 222 222 225 227 228 224 226 229 236 260 289 312 335 352
350 350 354 352 355 355 352 344 338 334 327 333 325 319 327 182 245 289 220 202 262 219 205 205 210 210 209 211 217 224 226 222 222 230 231 229 230 236 255 280 309 333 348
338 349 350 356 350 346 347 332 333 326 324 330 321 328 311 263 193 214 321 219 217 237 210 203 206 209 210 211 216 222 227 222 221 226 233 232 231 240 256 273 302 342 347
348 344 351 345 341 338 338 337 338 324 323 319 330 318 311 302 247 183 175 278 257 218 243 232 216 206 209 209 213 218 221 219 216 223 229 231 232 240 255 265 284 335 350
332 332 339 338 335 335 332 326 322 323 322 316 318 307 305 311 305 235 208 175 270 243 301 248 216 209 210 206 209 212 212 216 213 218 227 229 234 231 212 179 286 356 8
336 339 332 331 333 330 328 326 325 314 315 323 309 305 297 304 301 302 215 202 182 241 237 245 237 206 209 206 207 205 206 211 212 214 219 226 231 201 186 204 213 70 51
330 331 330 330 330 330 331 329 321 314 314 316 318 316 314 309 304 303 279 225 214 211 250 214 226 187 201 206 211 204 204 208 210 213 216 220 219 203 198 209 205 137 115
327 323 325 324 326 326 328 326 316 312 318 307 310 307 308 314 302 306 327 257 230 215 236 256 236 198 202 194 199 207 201 202 208 214 215 219 220 214 211 208 192 159 152
314 315 317 319 317 320 319 317 315 316 313 310 305 306 307 306 302 308 299 300 225 204 225 246 215 203 201 208 176 193 197 201 199 210 212 212 217 217 211 202 184 168 151
306 311 314 310 312 312 313 312 310 309 307 309 303 298 300 308 307 316 316 304 271 202 198 204 238 276 142 186 123 127 187 188 201 208 205 208 213 212 206 194 177 168 154
298 298 299 297 299 303 303 299 303 309 305 299 298 296 289 291 299 308 312 311 309 258 195 198 185 216 200 191 124 157 183 182 170 189 195 196 200 199 197 178 168 164 156
290 294 298 299 297 298 296 306 306 302 302 306 300 294 295 289 292 294 293 290 291 309 236 206 203 183 206 182 198 179 185 131 191 156 146 166 157 172 176 171 167 157 154
280 291 289 292 296 298 302 306 308 301 306 309 305 302 299 298 291 292 290 291 284 277 292 217 214 224 220 220 169 171 145 134 211 189 125 149 136 154 158 170 168 156 154
289 283 285 287 286 289 301 306 310 303 301 302 301 302 303 300 303 293 290 287 288 279 282 257 217 213 217 202 179 184 189 160 185 185 114 140 104 131 162 167 165 160 154
273 281 286 288 287 288 299 306 306 306 300 289 292 298 298 297 291 291 288 284 286 285 282 274 237 228 224 192 184 186 173 115 70 154 139 145 134 117 115 154 166 164 162
273 271 277 278 282 287 296 299 307 301 293 293 291 291 290 293 295 295 294 279 281 280 278 279 266 245 209 171 168 145 169 174 175 200 200 114 152 108 118 133 171 173 172
274 281 283 280 283 288 293 300 299 293 295 295 294 297 302 300 299 299 300 296 294 295 318 288 294 241 212 179 174 186 173 190 158 118 196 112 144 150 145 167 184 181 176